Temperature
19 19 19 18 18 18 18 18 18 18 18 18 18 18 18 18 18 18 18 18 18 18 18 17 17 17 17 17 17 17 17 16 17 16 16 16 16 16 16 16 16 16 16
19 19 19 19 19 18 18 18 18 18 18 18 18 18 18 18 18 18 18 18 17 17 17 17 17 17 17 17 17 17 16 16 16 16 16 16 16 16 16 16 16 16 16
19 19 19 19 19 19 18 18 18 18 18 18 18 18 18 18 18 18 18 17 17 17 17 17 17 17 17 17 17 17 16 16 16 16 16 16 16 16 16 16 16 16 16
19 19 19 19 19 19 19 19 18 18 18 18 18 18 18 18 18 18 17 17 17 17 17 17 17 17 17 17 17 17 17 16 16 16 16 16 16 16 16 16 16 16 16
19 19 19 19 19 19 19 19 18 18 18 18 18 18 18 18 18 18 17 17 17 17 17 17 17 17 17 17 17 17 16 16 16 16 16 16 16 16 16 16 16 16 16
19 19 19 19 19 19 19 18 18 18 18 18 18 18 18 18 18 18 17 17 17 17 17 17 17 17 16 16 16 16 16 16 16 16 16 16 16 16 16 16 16 16 16
19 19 19 19 19 19 19 19 19 18 18 18 18 18 18 18 18 18 17 17 17 17 17 17 16 16 16 16 16 16 16 16 16 16 16 16 16 16 16 16 16 16 15
19 19 19 19 19 19 19 19 18 18 18 18 18 18 18 18 18 18 18 17 17 17 17 17 16 16 16 16 16 16 16 16 16 16 16 16 16 16 15 15 15 15 15
19 19 19 19 18 18 19 19 19 19 19 19 18 18 18 18 17 18 17 17 17 17 17 16 16 16 16 16 16 16 16 16 16 16 16 16 15 15 15 15 15 15 15
19 19 19 19 18 18 19 19 19 18 18 18 19 19 19 18 18 17 17 17 17 17 17 17 16 16 16 16 16 16 16 16 16 16 16 15 15 15 15 15 15 15 15
18 18 18 18 18 18 18 18 18 18 18 18 18 19 18 18 18 18 17 17 17 17 17 17 16 16 16 16 16 16 16 16 16 16 15 15 15 15 15 15 15 15 15
18 18 18 18 18 18 18 18 18 18 18 18 19 19 18 18 18 18 18 17 17 17 17 16 16 16 16 16 16 16 16 16 16 16 15 15 15 15 15 15 15 15 15
19 19 19 19 18 18 18 18 18 18 18 18 18 18 18 18 18 18 18 17 17 17 17 17 16 16 16 16 16 16 16 16 16 15 15 15 15 15 15 15 15 14 14
19 19 19 19 18 18 18 18 18 18 18 18 18 18 18 18 18 18 18 17 17 17 17 17 16 16 16 16 16 16 15 15 15 15 15 15 15 15 14 14 14 14 14
19 19 18 18 18 18 18 18 18 18 18 18 18 18 18 18 18 18 18 18 17 17 16 16 16 16 16 16 16 15 15 15 15 15 15 15 15 14 14 14 14 14 14
19 19 18 18 18 18 18 18 18 18 18 18 18 18 18 18 18 18 18 18 17 17 17 16 16 16 16 16 15 15 15 15 15 15 15 15 15 14 14 14 14 14 14
19 18 18 18 18 18 18 18 18 18 18 18 18 18 18 18 18 18 18 17 17 17 17 16 16 16 16 16 16 15 15 15 15 15 15 15 14 14 14 14 14 14 14
19 18 18 18 18 18 18 18 18 18 18 18 18 17 17 18 18 18 17 17 17 17 17 16 16 16 16 15 15 15 15 15 15 15 15 15 14 14 14 14 14 14 13
18 18 18 18 18 18 18 18 18 18 18 17 17 17 17 17 17 17 17 17 17 16 16 16 16 16 15 15 15 15 15 15 15 15 15 14 14 14 14 14 14 14 13
18 18 18 18 18 18 18 18 18 18 18 17 17 17 17 17 17 17 17 17 17 16 16 16 16 16 15 15 15 15 15 15 14 14 14 14 14 14 14 14 14 13 13
18 18 18 18 18 18 18 18 18 17 17 17 17 17 17 17 17 17 17 16 16 16 16 16 16 15 15 15 15 15 14 14 14 14 14 14 14 14 14 14 14 13 13
18 18 18 18 18 18 18 18 18 17 17 17 17 17 17 17 17 17 16 16 16 16 16 16 15 15 15 15 15 14 14 14 14 14 14 14 14 14 14 14 14 13 13
18 18 18 18 17 18 18 17 17 17 17 17 17 16 16 16 16 16 16 16 16 16 16 16 15 15 15 15 15 15 14 14 14 14 14 14 14 13 14 13 13 13 13
18 18 18 17 17 17 17 17 17 17 17 17 17 16 16 16 16 16 16 16 16 16 16 15 15 15 15 15 15 14 14 14 14 14 13 13 13 13 13 13 13 13 13
18 17 17 17 17 17 17 17 17 17 17 17 16 16 16 16 16 16 16 16 16 16 15 15 15 15 15 15 15 14 14 14 14 14 13 13 13 13 13 13 13 13 12
17 17 17 17 17 17 17 17 17 17 16 16 16 16 16 16 16 16 16 16 16 15 15 15 15 15 15 15 14 14 14 13 13 13 13 13 13 12 12 13 12 12 12
Wind_Speed
3 3 2 2 4 5 5 3 3 2 2 2 2 3 3 6 7 9 9 10 10 9 9 9 8 8 8 8 8 8 7 8 8 8 7 7 8 8 7 7 6 6 6
4 3 3 2 2 3 4 3 2 2 2 2 2 3 3 5 7 8 10 10 9 9 8 8 8 7 7 8 8 7 7 7 7 7 7 7 7 7 7 7 6 6 6
4 3 3 3 2 4 5 4 3 2 2 3 2 3 3 4 6 7 9 9 9 8 8 8 7 7 7 7 7 8 8 7 7 7 7 7 7 7 7 6 6 6 6
4 3 3 2 3 4 3 3 2 2 2 2 2 2 3 4 4 5 6 7 8 8 8 8 7 7 7 7 7 7 7 7 7 7 7 7 7 7 6 5 5 5 6
4 3 2 2 3 2 2 2 3 2 2 1 2 2 2 3 3 4 4 5 7 8 8 9 9 8 7 7 6 6 6 7 6 7 7 7 7 6 6 6 6 6 6
3 3 3 3 2 2 1 2 3 2 2 1 1 2 2 2 2 3 3 3 4 7 9 10 9 7 7 6 5 5 6 6 6 6 6 7 8 7 6 6 6 6 7
4 3 2 3 2 3 2 3 2 2 2 2 2 2 2 1 2 2 3 3 3 4 6 8 8 7 7 7 5 5 6 6 6 6 6 7 7 7 7 7 7 7 7
3 4 3 2 2 3 2 2 2 1 1 2 2 2 1 0 0 2 2 3 3 4 5 7 6 6 6 6 5 5 5 4 5 5 6 6 6 7 7 7 7 7 7
3 3 4 2 2 3 3 2 2 2 1 0 1 1 1 1 0 1 1 2 2 2 2 4 6 6 7 7 6 5 5 4 4 4 5 6 7 7 7 7 7 7 6
2 3 3 2 1 2 3 2 2 1 2 1 0 1 1 3 2 1 0 2 2 2 2 2 4 6 6 7 7 7 6 6 5 5 4 4 5 6 6 6 6 6 6
2 3 3 1 1 1 2 1 2 1 1 1 0 1 1 1 2 2 1 1 1 1 2 2 2 4 6 6 7 7 7 7 5 4 4 3 3 3 4 3 3 3 3
2 3 3 2 1 0 1 2 1 2 1 0 1 0 1 1 1 1 2 2 2 1 2 2 2 3 5 5 7 8 9 8 7 5 4 3 3 3 3 3 3 3 3
2 2 3 2 1 1 1 2 2 1 1 1 0 1 1 0 0 1 2 1 1 1 2 2 2 4 4 7 7 8 9 9 7 6 4 4 3 3 3 2 2 2 2
2 3 3 3 2 1 1 1 1 1 1 1 0 0 1 1 0 1 1 2 1 1 1 2 2 3 4 6 8 9 7 9 8 6 5 4 4 3 3 2 2 1 1
2 4 3 2 2 1 1 1 1 1 1 0 0 0 1 1 1 1 1 1 1 1 1 1 1 2 4 5 8 7 6 8 8 8 7 6 5 4 4 3 2 2 1
2 3 2 2 2 1 1 0 0 1 1 0 0 0 1 1 1 1 0 0 0 1 1 1 1 2 2 4 6 6 6 8 8 8 8 7 6 6 5 4 3 3 2
2 2 2 2 2 1 1 0 0 1 1 0 1 0 0 1 2 2 1 1 1 2 2 1 2 2 2 2 3 4 5 7 7 9 9 9 8 7 7 6 5 4 4
2 2 2 2 2 2 1 1 1 1 1 1 1 1 0 0 1 1 1 1 0 1 2 2 2 2 2 2 2 3 3 5 6 9 10 10 10 9 8 7 6 6 5
2 2 2 2 1 2 2 1 1 1 1 1 1 1 1 1 1 1 1 0 1 1 2 2 2 1 1 2 2 2 2 2 4 6 9 10 10 10 10 9 9 8 8
3 2 2 2 1 1 1 1 1 1 1 1 1 1 0 0 0 0 0 0 0 0 1 2 2 2 1 1 1 2 2 2 2 3 5 7 10 11 10 10 10 9 9
4 3 3 2 2 2 1 1 2 2 2 2 2 1 1 2 2 1 0 1 0 1 1 1 1 1 1 1 2 2 2 2 2 2 2 4 6 6 7 10 11 10 10
3 3 3 2 2 1 3 3 1 1 1 2 2 1 2 2 2 2 1 1 0 1 2 1 1 1 1 1 2 2 1 2 2 2 2 3 3 4 5 6 9 10 10
4 3 3 2 2 3 4 4 2 0 0 0 0 1 1 1 3 2 1 2 2 3 3 2 2 2 2 1 2 3 2 3 3 3 2 3 2 3 4 6 10 11 12
3 3 3 3 2 3 3 3 1 1 0 1 1 1 1 0 0 1 1 1 2 2 3 3 3 3 2 1 2 3 4 4 4 3 2 3 3 3 3 5 10 13 14
4 4 3 3 3 2 3 3 2 1 1 2 2 1 1 1 0 0 1 2 2 3 3 3 3 3 4 3 2 2 3 3 3 3 2 2 3 3 2 3 7 13 13
4 4 4 4 4 3 4 4 3 2 2 2 2 1 2 1 1 1 1 2 3 3 3 2 3 4 5 5 6 4 3 3 3 3 1 1 2 2 2 2 3 5 8
Wind_Direction
135 136 144 158 161 155 161 164 155 148 129 138 136 135 108 105 111 112 123 134 141 148 154 157 160 164 172 175 174 176 178 180 180 180 181 185 185 187 185 189 190 194 196
141 146 154 160 156 152 152 151 142 135 140 121 130 121 109 108 115 122 131 135 141 146 152 161 167 170 171 176 177 177 182 185 185 187 189 190 188 186 188 191 194 201 209
134 150 154 156 165 164 155 150 159 151 164 153 137 124 112 110 120 127 135 142 148 153 154 155 160 166 171 173 177 183 183 184 185 184 187 189 189 190 191 195 203 211 219
149 159 152 160 169 160 149 149 144 140 139 129 133 142 133 127 131 133 139 149 158 160 162 161 162 169 174 174 175 180 182 184 188 190 190 189 188 187 189 197 208 219 229
146 157 140 141 154 140 154 152 124 141 135 132 144 149 157 149 141 141 142 151 153 150 156 162 165 165 172 177 183 183 182 187 192 192 192 194 196 193 198 211 220 229 238
139 141 137 141 134 114 114 107 122 142 154 170 140 133 145 134 140 142 149 132 136 156 159 157 158 160 168 178 183 184 183 183 189 194 197 202 203 202 205 217 223 230 236
124 132 101 126 127 118 124 122 136 155 144 122 102 88 103 129 147 140 138 134 133 136 127 133 146 151 153 172 179 185 182 180 183 190 196 202 201 203 213 220 222 230 236
130 136 119 133 118 127 131 135 150 138 143 146 152 140 123 101 21 131 146 150 141 135 134 136 136 141 143 147 164 181 183 190 194 191 194 198 201 207 212 220 226 229 233
128 107 118 126 127 145 145 164 162 158 162 139 83 135 142 143 114 95 114 114 122 124 132 130 138 143 150 142 141 161 182 187 188 187 196 203 206 210 216 221 227 231 235
112 102 113 116 111 113 139 184 162 169 154 178 150 65 123 136 153 145 175 122 136 140 157 145 135 139 138 132 138 146 168 184 185 190 192 198 204 204 210 220 228 232 230
126 121 123 124 112 125 143 124 121 142 125 159 173 124 101 112 143 162 167 155 139 168 161 150 132 131 135 136 143 147 160 174 177 173 170 173 178 184 192 206 216 223 231
150 144 139 126 121 140 129 131 143 140 115 57 7 22 118 132 165 157 169 173 164 168 158 150 139 129 132 134 142 147 152 159 160 165 167 167 172 182 192 203 217 229 236
146 150 125 127 129 130 137 148 155 153 150 163 189 312 350 45 47 126 149 156 149 157 153 166 145 133 136 126 130 139 151 157 159 161 164 169 174 182 191 204 221 230 242
122 133 129 131 134 145 132 127 138 173 160 177 254 311 312 309 314 143 160 166 156 160 161 141 125 127 122 130 145 151 148 158 164 167 173 178 179 181 185 186 195 217 261
147 120 126 127 120 96 38 37 99 57 88 171 242 204 258 291 287 266 209 192 172 172 176 121 120 131 127 121 143 154 150 165 173 177 182 187 189 188 187 187 192 200 207
100 126 132 137 140 139 151 276 145 118 122 254 271 317 317 317 312 305 288 216 144 154 154 128 127 123 128 137 155 167 168 174 179 181 187 192 195 195 194 196 196 196 196
142 144 152 158 159 150 139 102 188 170 169 217 262 150 226 351 341 339 347 39 81 118 132 127 108 112 113 97 146 177 169 175 180 192 194 198 200 201 202 204 205 203 205
151 154 169 172 178 154 147 169 264 85 98 90 42 17 321 13 27 340 358 39 78 161 145 146 149 151 170 182 187 209 186 198 187 192 197 200 202 205 207 208 211 212 214
158 160 160 162 170 152 158 151 104 72 67 74 80 37 11 357 21 22 39 308 240 168 140 152 168 162 184 200 194 230 230 228 212 191 194 203 207 207 209 213 214 216 216
157 162 155 158 157 143 152 152 153 152 132 106 105 109 112 32 72 261 194 283 322 241 172 175 171 183 196 200 188 239 244 245 242 194 192 202 204 208 214 213 216 218 218
168 157 157 161 159 171 184 158 176 173 170 164 158 141 117 93 81 52 51 47 332 282 242 229 201 190 217 197 237 245 249 257 242 222 198 205 192 197 208 216 221 223 221
169 158 165 165 179 180 101 104 109 171 168 180 178 161 160 139 134 125 83 67 147 249 283 276 281 259 258 254 261 264 259 262 261 223 228 245 200 204 201 203 207 211 216
174 169 169 164 141 97 91 96 89 146 159 158 168 197 237 165 152 158 187 217 231 244 235 234 268 278 267 272 267 272 276 267 265 251 232 256 235 221 212 206 195 203 210
178 180 182 169 159 141 124 116 93 192 246 262 250 234 250 52 281 155 206 211 244 256 243 231 251 271 275 310 256 259 266 265 261 255 226 251 258 247 232 191 197 202 210
181 192 181 175 169 161 161 159 163 206 235 258 259 231 146 153 321 111 241 261 266 262 246 241 241 251 264 266 249 271 284 288 283 267 232 239 267 277 243 214 209 209 212
191 193 183 184 180 178 175 178 186 225 237 248 246 181 119 96 114 120 258 264 275 283 286 270 250 249 243 240 232 221 244 265 280 277 243 249 274 291 277 243 198 202 219
Height
1527 1529 1530 1532 1533 1534 1535 1537 1538 1539 1540 1541 1541 1542 1543 1543 1543 1543 1544 1544 1545 1546 1546 1547 1548 1549 1550 1551 1552 1553 1554 1555 1556 1557 1559 1560 1561 1562 1563 1564 1565 1566 1567
1527 1529 1531 1532 1533 1535 1536 1537 1538 1539 1540 1540 1541 1542 1543 1543 1544 1544 1544 1545 1545 1546 1546 1547 1547 1548 1549 1550 1551 1552 1553 1554 1555 1556 1558 1559 1560 1561 1562 1563 1563 1564 1565
1528 1529 1531 1532 1533 1535 1536 1537 1538 1539 1540 1541 1541 1542 1543 1543 1544 1544 1544 1544 1545 1545 1546 1546 1547 1548 1549 1549 1550 1551 1552 1553 1554 1555 1556 1557 1558 1559 1560 1561 1561 1562 1563
1528 1530 1531 1532 1533 1535 1536 1537 1538 1539 1540 1540 1541 1542 1543 1543 1544 1544 1545 1544 1545 1545 1546 1546 1546 1547 1548 1549 1549 1550 1551 1552 1553 1554 1555 1556 1557 1557 1558 1559 1559 1560 1561
1528 1530 1531 1533 1534 1535 1536 1537 1538 1538 1539 1540 1541 1542 1543 1543 1544 1544 1544 1545 1545 1545 1545 1545 1546 1546 1547 1548 1548 1549 1550 1550 1551 1552 1553 1554 1555 1556 1556 1557 1557 1558 1558
1529 1530 1531 1533 1534 1535 1536 1537 1538 1539 1539 1540 1541 1542 1543 1543 1543 1544 1544 1545 1545 1545 1545 1545 1545 1546 1546 1547 1547 1548 1548 1549 1550 1550 1551 1552 1553 1553 1554 1554 1555 1555 1556
1529 1530 1532 1533 1534 1535 1536 1537 1538 1539 1540 1540 1541 1542 1543 1543 1543 1544 1544 1544 1545 1545 1545 1545 1545 1545 1545 1546 1546 1547 1547 1548 1548 1549 1549 1550 1550 1551 1552 1552 1553 1553 1553
1530 1531 1531 1533 1534 1535 1535 1536 1537 1538 1540 1540 1541 1541 1542 1544 1543 1544 1544 1544 1544 1545 1545 1545 1545 1545 1545 1545 1546 1546 1546 1547 1547 1548 1548 1548 1549 1549 1550 1550 1551 1551 1551
1530 1531 1532 1533 1534 1534 1535 1536 1537 1538 1539 1540 1541 1542 1542 1542 1543 1544 1544 1544 1544 1544 1545 1545 1545 1545 1545 1545 1545 1545 1546 1546 1546 1547 1547 1547 1547 1548 1548 1548 1548 1548 1548
1531 1532 1532 1533 1534 1534 1535 1536 1537 1538 1539 1539 1540 1541 1541 1542 1542 1543 1544 1544 1544 1544 1545 1545 1545 1544 1544 1544 1544 1544 1545 1545 1545 1545 1546 1546 1546 1546 1546 1546 1546 1546 1546
1531 1532 1533 1533 1534 1535 1535 1536 1537 1538 1538 1539 1539 1540 1540 1541 1542 1542 1543 1543 1544 1544 1544 1544 1544 1544 1544 1544 1544 1543 1544 1544 1544 1544 1544 1544 1545 1545 1544 1544 1544 1544 1544
1532 1532 1533 1533 1534 1534 1535 1535 1536 1537 1537 1538 1539 1539 1540 1540 1541 1541 1542 1542 1542 1543 1543 1543 1543 1543 1543 1543 1542 1542 1542 1543 1543 1543 1543 1543 1543 1543 1543 1543 1542 1542 1542
1533 1533 1533 1533 1534 1534 1535 1535 1536 1536 1537 1537 1538 1539 1539 1539 1540 1540 1541 1541 1541 1542 1542 1543 1543 1543 1542 1542 1541 1542 1541 1541 1541 1541 1541 1541 1541 1541 1541 1541 1541 1540 1540
1533 1533 1533 1533 1534 1534 1535 1535 1536 1536 1537 1537 1537 1538 1538 1539 1539 1540 1540 1541 1540 1541 1541 1542 1542 1542 1542 1541 1540 1540 1540 1540 1540 1540 1540 1540 1540 1539 1539 1539 1539 1538 1538
1533 1533 1533 1533 1533 1534 1535 1535 1536 1536 1536 1537 1537 1537 1538 1538 1538 1539 1539 1540 1541 1540 1541 1541 1541 1541 1541 1540 1540 1539 1539 1539 1539 1539 1538 1538 1538 1538 1537 1537 1536 1536 1535
1533 1533 1533 1533 1533 1534 1534 1535 1535 1536 1536 1536 1536 1537 1537 1537 1537 1538 1538 1538 1539 1539 1539 1539 1540 1540 1540 1539 1538 1538 1538 1537 1537 1537 1537 1537 1536 1536 1536 1535 1535 1534 1533
1532 1532 1533 1533 1533 1533 1534 1534 1535 1535 1535 1536 1536 1536 1536 1536 1536 1536 1537 1537 1537 1537 1537 1538 1538 1538 1538 1538 1537 1537 1536 1536 1536 1536 1536 1535 1535 1535 1534 1534 1533 1532 1531
1531 1531 1532 1532 1533 1533 1533 1534 1534 1535 1535 1534 1535 1535 1535 1535 1535 1535 1535 1535 1536 1536 1536 1536 1537 1537 1537 1536 1536 1535 1535 1535 1534 1534 1534 1534 1533 1533 1532 1532 1531 1530 1530
1530 1530 1531 1531 1532 1532 1532 1533 1533 1533 1534 1534 1534 1534 1533 1534 1534 1534 1533 1534 1534 1535 1535 1535 1535 1535 1535 1534 1534 1534 1533 1533 1533 1533 1532 1532 1532 1531 1530 1530 1529 1528 1527
1529 1529 1530 1530 1531 1531 1531 1532 1532 1532 1532 1533 1533 1533 1533 1533 1532 1533 1533 1533 1533 1533 1533 1533 1533 1533 1533 1533 1532 1532 1532 1532 1532 1531 1530 1530 1529 1529 1528 1527 1526 1526 1525
1528 1528 1529 1529 1530 1530 1531 1531 1531 1531 1531 1532 1532 1532 1532 1532 1532 1532 1532 1532 1532 1532 1532 1532 1532 1532 1532 1531 1531 1530 1530 1530 1530 1529 1528 1527 1526 1525 1525 1524 1524 1523 1522
1526 1527 1528 1528 1529 1529 1530 1530 1530 1530 1530 1530 1530 1530 1531 1531 1531 1531 1531 1531 1531 1531 1531 1531 1531 1530 1530 1530 1530 1529 1528 1528 1527 1527 1526 1525 1524 1523 1522 1521 1521 1520 1520
1524 1525 1526 1527 1527 1528 1528 1529 1528 1529 1529 1529 1529 1529 1530 1530 1530 1530 1530 1529 1530 1530 1530 1530 1529 1529 1528 1528 1527 1527 1526 1525 1525 1524 1523 1522 1522 1520 1519 1519 1518 1518 1517
1523 1523 1524 1525 1525 1526 1527 1527 1527 1527 1527 1528 1528 1528 1528 1528 1528 1528 1528 1527 1527 1527 1527 1527 1527 1527 1526 1526 1525 1525 1524 1523 1522 1522 1521 1520 1519 1518 1517 1516 1515 1515 1514
1520 1521 1522 1523 1523 1524 1525 1525 1525 1525 1525 1526 1526 1527 1527 1526 1526 1526 1526 1525 1525 1525 1525 1525 1524 1524 1524 1523 1523 1522 1521 1520 1519 1518 1518 1517 1516 1515 1514 1513 1512 1511 1511
1518 1519 1520 1521 1521 1522 1522 1523 1523 1523 1523 1524 1524 1524 1524 1524 1524 1524 1524 1523 1523 1523 1523 1522 1522 1521 1521 1520 1520 1519 1518 1517 1516 1515 1514 1514 1512 1512 1510 1509 1508 1507 1507